Weather Roundup
Issued by NWS

Home | Current Version | Previous Version | Graphics & Text | Print | Product List | Glossary Off
Versions: 1 2 3 4 5 6 7 8 9 10 11 12 13 14 15 16 17 18 19 20 21 22 23 24 25 26 27 28 29 30 31 32 33 34 35 36 37 38 39 40 41 42 43 44 45 46 47 48 49 50

000
NZUS93 KARX 021910
HRRWXR

CURRENT HOURLY OBSERVATIONS ACROSS
MUCH OF THE UPPER MISSISSIPPI VALLEY
NATIONAL WEATHER SERVICE LA CROSSE WI
200 PM CDT THU JUL 02 2015


...SOUTHEAST MINNESOTA...


CITY           SKY/WX    TMP DP  RH WIND       PRES   REMARKS
ROCHESTER      SUNNY     72  53  51 SE6       30.03S
ROCHESTER/MAYO MOCLDY    72  52  49 E6        30.03S
WINONA         SUNNY     73  54  49 CALM      30.02S
AUSTIN         SUNNY     73  52  46 S5        30.02S
ALBERT LEA     SUNNY     73  52  46 E7        30.02S
DODGE CENTER   MOSUNNY   72  54  53 SE7       30.03S
PRESTON        SUNNY     70  53  54 NE6       30.04S
OWATONNA       SUNNY     73  52  46 SE9       30.02S
FARIBAULT      SUNNY     73  54  49 SE3       30.02F
$$

...ELSEWHERE IN MINNESOTA...


CITY           SKY/WX    TMP DP  RH WIND       PRES   REMARKS
MINNEAPOLIS    MOSUNNY   74  49  41 VRB6      30.01F
INTNL FALLS    MOSUNNY   77  59  53 W7        29.95F
DULUTH         CLOUDY    76  58  53 W9        30.01S
RED WING       SUNNY     75  46  35 E7        30.00F
REDWOOD FALLS  MOSUNNY   75  47  36 SE8       30.00F
MANKATO        SUNNY     72  50  46 S9        30.01F
WORTHINGTON    PTSUNNY   68  50  52 E7        30.02S
FAIRMONT       NOT AVBL
$$

...SOUTHWEST WISCONSIN...


CITY           SKY/WX    TMP DP  RH WIND       PRES   REMARKS
LA CROSSE      SUNNY     74  51  44 VRB6      30.01F
PRAIRIE DU CHI SUNNY     71  52  52 E7        30.01
BOSCOBEL       MOSUNNY   72  52  49 NE8       30.02S
LONE ROCK      MOSUNNY   71  49  45 E9        30.02F
PLATTEVILLE    MOSUNNY   70  50  49 E9        30.01
FORT MC COY    SUNNY     74  47  38 E8        30.03
CAMP DOUGLAS   MOSUNNY   72  55  55 VRB6      30.02F
VIROQUA        FAIR      71  51  49 NE6       30.03
WIS DELLS      SUNNY     69  49  48 NE7       30.03F
$$

...ELSEWHERE IN WISCONSIN...


CITY           SKY/WX    TMP DP  RH WIND       PRES   REMARKS
MILWAUKEE      MOSUNNY   64  51  62 NE13      30.04F
MADISON        MOSUNNY   69  47  45 E5        30.02F
GREEN BAY      SUNNY     72  50  45 NE8       30.05F
EAU CLAIRE     SUNNY     75  50  41 E5        30.02S
BLACK RVR FLS  FAIR      75  51  42 NE3       30.02F
MEDFORD        SUNNY     71  53  51 SE6       30.05
WAUSAU         SUNNY     74  44  34 SE10      30.03F
WIS RAPIDS     SUNNY     73  44  35 VRB5      30.05F
MARSHFIELD     SUNNY     72  49  44 SE10      30.04F
RICE LAKE      SUNNY     73  50  44 CALM      30.04  HAZE
$$

...NORTHEAST IOWA...


CITY           SKY/WX    TMP DP  RH WIND       PRES   REMARKS
DECORAH          N/A    N/A N/A N/A MISG        N/A
MASON CITY     MOSUNNY   73  53  49 E10G18    30.03S
CHARLES CITY   MOSUNNY   72  54  53 E8        30.03
OELWEIN        MOSUNNY   70  55  60 VRB6G12   30.02
$$

...ELSEWHERE IN IOWA...


CITY           SKY/WX    TMP DP  RH WIND       PRES   REMARKS
DES MOINES     CLOUDY    69  50  50 E8        29.99S
IOWA CITY      PTSUNNY   72  51  47 E12G17    29.98F
FORT DODGE     CLOUDY    68  55  64 SE7       30.01S
$$

...NORTHERN ILLINOIS...


CITY           SKY/WX    TMP DP  RH WIND       PRES   REMARKS
CHICAGO-OHARE  PTSUNNY   67  53  61 NE13      30.00S
CHICAGO-MIDWAY PTSUNNY   70  56  61 NE15      29.99S
MOLINE         MOSUNNY   72  54  53 E15       29.98F
ROCKFORD       CLOUDY    71  54  54 NE15      30.01F
PEORIA         PTSUNNY   74  58  57 E10G21    29.96S
$$

NOTE: "FAIR" INDICATES FEW OR NO CLOUDS BELOW 12,000 FEET WITH NO
SIGNIFICANT WEATHER AND/OR OBSTRUCTIONS TO VISIBILITY. WIND
SPEEDS ARE IN MILES-PER-HOUR.



USA.gov is the U.S. government's official web portal to all federal, state and local government web resources and services.